Location: ????????
(54.9045°N, 39.1041°E)
Time: 03:59:43
(UTC+00:00)

NOSS 2-3 (D) - Visible Passes

Search period start: 25 July 2024 00:00
Search period end: 04 August 2024 00:00
Orbit: 497 x 1701 km, 63.3° (Epoch: 24 April)

Date Brightness Start Highest point End Pass type
(mag) Time Alt. Az. Time Alt. Az. Time Alt. Az.
25 Jul 4.7 00:22:16 10° WNW 00:27:27 48° SW 00:34:22 10° SSE visible
25 Jul 5.8 19:53:34 10° WNW 19:57:22 30° N 20:02:04 10° ENE visible
25 Jul 5.2 21:44:15 10° NW 21:48:49 46° NNE 21:54:52 10° E visible
25 Jul 4.3 23:34:24 10° NW 23:39:36 69° SW 23:46:41 10° SE visible
26 Jul 5.6 19:05:26 10° WNW 19:09:08 31° N 19:13:41 10° NE visible
26 Jul 5.5 20:56:24 10° NW 21:00:41 37° NNE 21:06:14 10° E visible
26 Jul 4.3 22:46:36 10° NW 22:51:41 86° NE 22:58:39 10° SE visible
27 Jul 5.3 00:37:11 10° WNW 00:42:02 30° WSW 00:48:12 10° S visible
27 Jul 5.3 18:17:15 10° W 18:20:57 36° NNW 18:25:27 10° NE visible
27 Jul 5.7 20:08:28 10° NW 20:12:30 32° N 20:17:35 10° ENE visible
27 Jul 4.6 21:58:49 10° NW 22:03:43 64° NE 22:10:20 10° ESE visible
27 Jul 4.8 23:49:06 10° WNW 23:54:14 43° SW 00:01:03 10° SSE visible
28 Jul 5.7 19:20:25 10° WNW 19:24:15 30° N 19:29:00 10° ENE visible
28 Jul 5.0 21:11:00 10° NW 21:15:39 49° NNE 21:21:50 10° ESE visible
28 Jul 4.4 23:01:11 10° NW 23:06:22 62° SW 23:13:26 10° SSE visible
29 Jul 5.6 18:32:16 10° WNW 18:35:58 31° N 18:40:33 10° ENE visible
29 Jul 5.4 20:23:08 10° NW 20:27:30 39° NNE 20:33:11 10° E visible
29 Jul 4.3 22:13:19 10° NW 22:18:26 87° SW 22:25:27 10° SE visible
30 Jul 5.4 00:04:01 10° WNW 00:08:44 27° WSW 00:14:37 10° S visible
30 Jul 5.6 19:35:11 10° NW 19:39:17 33° NNE 19:44:29 10° ENE visible
30 Jul 4.5 21:25:29 10° NW 21:30:26 70° NE 21:37:11 10° ESE visible
30 Jul 4.9 23:15:50 10° WNW 23:20:55 39° SW 23:27:35 10° SSE visible
31 Jul 5.6 18:47:08 10° WNW 18:51:01 30° N 18:55:51 10° ENE visible
31 Jul 4.9 20:37:39 10° NW 20:42:22 52° NNE 20:48:41 10° ESE visible
31 Jul 4.5 22:27:50 10° NW 22:33:02 56° SW 22:40:03 10° SSE visible
01 Aug 6.0 00:19:34 10° W 00:23:00 16° WSW 00:26:57 10° SSW visible
01 Aug 5.2 19:49:46 10° NW 19:54:12 41° NNE 20:00:01 10° E visible
01 Aug 4.2 21:39:56 10° NW 21:45:04 80° SW 21:52:08 10° SE visible
01 Aug 5.6 23:30:46 10° WNW 23:35:18 24° WSW 23:39:11 15° SSW visible
02 Aug 5.4 19:01:49 10° NW 19:05:58 34° NNE 19:11:17 10° E visible
02 Aug 4.4 20:52:03 10° NW 20:57:04 76° NE 21:03:53 10° ESE visible
02 Aug 5.1 22:42:28 10° WNW 22:47:29 35° SW 22:51:11 21° S visible
03 Aug 5.5 18:13:44 10° WNW 18:17:40 31° N 18:22:35 10° ENE visible
03 Aug 4.7 20:04:11 10° NW 20:08:58 56° NNE 20:15:24 10° ESE visible
03 Aug 4.6 21:54:23 10° WNW 21:59:35 51° SW 22:03:33 24° SSE visible
03 Aug 6.2 23:46:34 10° W 23:49:28 14° WSW 23:50:39 13° SW visible
